Regional Weather Roundup
Issued by NWS

Home | Current Version | Previous Version | Graphics & Text | Print | Product List | Glossary On
Versions: 1 2 3 4 5 6 7 8 9 10 11 12 13 14 15 16 17 18 19 20 21 22 23 24 25 26 27 28 29 30 31 32 33 34 35 36 37 38 39 40 41 42 43 44 45 46 47 48 49 50
000
ASUS45 KSLC 220310
RWRUT

UTAH REGIONAL WEATHER ROUNDUP
NATIONAL WEATHER SERVICE SALT LAKE CITY UT
900 PM MDT THU AUG 21 2014

UTZ001>011-023>025-220400-

NORTHERN UTAH

CITY           SKY/WX    TMP DP  RH WIND       PRES   REMARKS
HILL AFB       MOCLDY    72  48  43 NE5       30.05S
LOGAN          PTCLDY    66  50  56 N15       30.08R
OGDEN          CLOUDY    72  50  45 NW16      30.03R
PROVO AIRPORT  NOT AVBL
SALT LAKE CITY MOCLDY    73  47  39 S6        30.00S
VERNAL         MOCLDY    68  47  46 N12       30.13R
WENDOVER       CLOUDY    70  52  52 N25G31    29.99S
HEBER CITY     PTCLDY    63  48  59 E5        30.11S
WEST JORDAN    CLEAR     70  57  64 CALM      30.04S

$$

UTZ012>022-026-027-220400-

SOUTHERN UTAH

CITY           SKY/WX    TMP DP  RH WIND       PRES   REMARKS
BRYCE CANYON   CLOUDY    56  44  64 W8        30.30S
CEDAR CITY     CLOUDY    66  49  54 SE14      30.17F
MILFORD        MOCLDY    70  50  49 S16       30.11R
MOAB/CYNLANDS  CLEAR     74  48  39 CALM      30.04R
PRICE          CLOUDY    71  43  36 VRB7      30.15R
ST GEORGE      PTCLDY    77  54  44 SE5       30.04S
KANAB            N/A     64  50  59 SW7G20    30.19F

$$

REGIONAL REPORTS     COLORADO/ARIZONA

CITY           SKY/WX    TMP DP  RH WIND       PRES   REMARKS
CRAIG, CO      MOCLDY    59  47  64 S6        30.23R
GRAND JUNCTION CLOUDY    69  51  52 CALM      30.09R
RIFLE          MOCLDY    71  41  33 SE3       30.14R
MONTROSE       CLOUDY    72  48  42 S5        30.18R
CORTEZ         PTCLDY    68  44  42 SE5       30.18R
PAGE, AZ       LGT RAIN  76  48  37 S10G17    30.10R
GRAND CANYON   LGT RAIN N/A N/A N/A MISG        N/A
KINGMAN        MOCLDY    69  60  73 N7        30.06S
FLAGSTAFF      CLOUDY    54  52  93 NW3       30.27F

$$

REGIONAL REPORTS    NEVADA/IDAHO/WYOMING

CITY           SKY/WX    TMP DP  RH WIND       PRES   REMARKS
LAS VEGAS, NV  MOCLDY    81  47  30 SW9       29.92S
ELY            PTCLDY    64  40  41 S9        30.12R
ELKO           PTCLDY    75  34  22 CALM      29.99R
POCATELLO, ID  MOCLDY    66  46  48 S20G28    30.07R
BURLEY         CLOUDY    61  53  75 S13       30.01S
EVANSTON, WY   MOCLDY    60  42  51 SW5       30.22R
ROCK SPRINGS   MOCLDY    55  48  77 S8        30.23R

$$



USA.gov is the U.S. government's official web portal to all federal, state and local government web resources and services.